| time (UTC) | temp F | wind direction | speed MPH | gust MPH | rain 1hr in | rain 24hr in | rain mn in | humidity % | barometer mb |
| 20260510145308 | 63 | 36 | 4.0 | 6.0 | 0.00 | 0.00 | 0.00 | 51 | 1016.5 |
| 20260510144805 | 64 | 323 | 3.0 | 4.0 | 0.00 | 0.00 | 0.00 | 49 | 1016.6 |
| 20260510144302 | 63 | 42 | 2.0 | 3.0 | 0.00 | 0.00 | 0.00 | 51 | 1016.5 |
| 20260510143801 | 63 | 16 | 0.0 | 2.0 | 0.00 | 0.00 | 0.00 | 56 | 1016.4 |
| 20260510143257 | 62 | 3 | 2.0 | 3.0 | 0.00 | 0.00 | 0.00 | 54 | 1016.6 |
| 20260510142754 | 63 | 44 | 2.0 | 3.0 | 0.00 | 0.00 | 0.00 | 54 | 1016.4 |
| 20260510142251 | 62 | 13 | 2.0 | 3.0 | 0.00 | 0.00 | 0.00 | 54 | 1016.4 |
| 20260510141748 | 62 | 39 | 0.0 | 6.0 | 0.00 | 0.00 | 0.00 | 55 | 1016.2 |
| 20260510141246 | 62 | 61 | 0.0 | 2.0 | 0.00 | 0.00 | 0.00 | 56 | 1016.3 |
| 20260510140743 | 61 | 340 | 2.0 | 3.0 | 0.00 | 0.00 | 0.00 | 54 | 1016.2 |
| 20260510140238 | 61 | 25 | 2.0 | 3.0 | 0.00 | 0.00 | 0.00 | 57 | 1016.1 |
| 20260510135738 | 61 | 5 | 1.0 | 1.0 | 0.00 | 0.00 | 0.00 | 60 | 1016.0 |
| 20260510135233 | 61 | 356 | 1.0 | 3.0 | 0.00 | 0.00 | 0.00 | 58 | 1015.8 |
| 20260510134732 | 61 | 21 | 2.0 | 4.0 | 0.00 | 0.00 | 0.00 | 60 | 1015.8 |
| 20260510134228 | 61 | 32 | 1.0 | 2.0 | 0.00 | 0.00 | 0.00 | 62 | 1015.8 |
| 20260510133724 | 60 | 17 | 1.0 | 4.0 | 0.00 | 0.00 | 0.00 | 63 | 1015.6 |
| 20260510133220 | 60 | 344 | 0.0 | 1.0 | 0.00 | 0.00 | 0.00 | 63 | 1015.3 |
| 20260510132716 | 60 | 35 | 3.0 | 4.0 | 0.00 | 0.00 | 0.00 | 65 | 1015.4 |
| 20260510132214 | 59 | 357 | 1.0 | 2.0 | 0.00 | 0.00 | 0.00 | 67 | 1015.1 |
| 20260510131711 | 59 | 29 | 1.0 | 6.0 | 0.00 | 0.00 | 0.00 | 67 | 1014.9 |
| 20260510131209 | 59 | 46 | 0.0 | 0.0 | 0.00 | 0.00 | 0.00 | 68 | 1014.9 |
| 20260510130705 | 58 | 9 | 2.0 | 6.0 | 0.00 | 0.00 | 0.00 | 69 | 1014.9 |
| 20260510130202 | 58 | 15 | 2.0 | 3.0 | 0.00 | 0.00 | 0.00 | 72 | 1015.0 |
| 20260510125658 | 58 | 37 | 0.0 | 3.0 | 0.00 | 0.00 | 0.00 | 72 | 1014.8 |
| 20260510125155 | 57 | 20 | 1.0 | 2.0 | 0.00 | 0.00 | 0.00 | 73 | 1014.7 |
| 20260510124652 | 57 | 7 | 2.0 | 2.0 | 0.00 | 0.00 | 0.00 | 76 | 1014.8 |
| 20260510124149 | 57 | 350 | 1.0 | 3.0 | 0.00 | 0.00 | 0.00 | 75 | 1014.6 |
| 20260510123644 | 57 | 15 | 2.0 | 4.0 | 0.00 | 0.00 | 0.00 | 75 | 1014.6 |
| 20260510123140 | 56 | 24 | 1.0 | 2.0 | 0.00 | 0.00 | 0.00 | 77 | 1014.3 |
| 20260510122637 | 56 | 33 | 1.0 | 2.0 | 0.00 | 0.00 | 0.00 | 77 | 1014.4 |
| 20260510122132 | 57 | 358 | 2.0 | 2.0 | 0.00 | 0.00 | 0.00 | 78 | 1014.2 |
| 20260510121629 | 56 | 8 | 2.0 | 2.0 | 0.00 | 0.00 | 0.00 | 80 | 1014.2 |
| 20260510121126 | 56 | 11 | 1.0 | 1.0 | 0.00 | 0.00 | 0.00 | 80 | 1014.3 |
| 20260510120625 | 55 | 9 | 0.0 | 1.0 | 0.00 | 0.00 | 0.00 | 81 | 1014.1 |
| 20260510120119 | 55 | 20 | 0.0 | 1.0 | 0.00 | 0.00 | 0.00 | 82 | 1014.0 |
| 20260510115616 | 55 | 9 | 0.0 | 0.0 | 0.00 | 0.00 | 0.00 | 85 | 1013.8 |
| 20260510115114 | 55 | 8 | 0.0 | 1.0 | 0.00 | 0.00 | 0.00 | 82 | 1013.8 |
| 20260510114609 | 55 | 29 | 0.0 | 1.0 | 0.00 | 0.00 | 0.00 | 83 | 1013.5 |
| 20260510114106 | 55 | 37 | 0.0 | 1.0 | 0.00 | 0.00 | 0.00 | 84 | 1013.6 |
| 20260510113601 | 54 | 61 | 0.0 | 0.0 | 0.00 | 0.00 | 0.00 | 85 | 1013.8 |
| 20260510113059 | 54 | 61 | 0.0 | 0.0 | 0.00 | 0.00 | 0.00 | 89 | 1013.6 |
| 20260510112555 | 54 | 61 | 0.0 | 0.0 | 0.00 | 0.00 | 0.00 | 90 | 1013.6 |
| 20260510112052 | 54 | 148 | 0.0 | 0.0 | 0.00 | 0.00 | 0.00 | 90 | 1013.6 |
| 20260510111548 | 55 | 35 | 0.0 | 0.0 | 0.00 | 0.00 | 0.00 | 88 | 1013.6 |
| 20260510111044 | 56 | 35 | 0.0 | 0.0 | 0.00 | 0.00 | 0.00 | 83 | 1013.6 |
| 20260510110541 | 57 | 25 | 0.0 | 0.0 | 0.00 | 0.00 | 0.00 | 79 | 1013.7 |
| 20260510110037 | 57 | 17 | 2.0 | 2.0 | 0.00 | 0.00 | 0.00 | 77 | 1014.0 |
| 20260510105532 | 57 | 352 | 0.0 | 0.0 | 0.00 | 0.00 | 0.00 | 78 | 1014.0 |
| 20260510105027 | 57 | 344 | 0.0 | 1.0 | 0.00 | 0.00 | 0.00 | 78 | 1013.7 |
| 20260510104524 | 57 | 19 | 0.0 | 1.0 | 0.00 | 0.00 | 0.00 | 79 | 1013.5 |
| 20260510104020 | 57 | 346 | 0.0 | 2.0 | 0.00 | 0.00 | 0.00 | 80 | 1013.4 |
| 20260510103518 | 57 | 316 | 0.0 | 1.0 | 0.00 | 0.00 | 0.00 | 81 | 1013.0 |
| 20260510103014 | 57 | 321 | 2.0 | 3.0 | 0.00 | 0.00 | 0.00 | 82 | 1012.8 |
| 20260510102510 | 57 | 10 | 0.0 | 2.0 | 0.00 | 0.00 | 0.00 | 83 | 1012.8 |
| 20260510102007 | 57 | 7 | 0.0 | 1.0 | 0.00 | 0.00 | 0.00 | 83 | 1012.8 |
| 20260510101504 | 57 | 10 | 0.0 | 1.0 | 0.00 | 0.00 | 0.00 | 84 | 1012.7 |
| 20260510101003 | 57 | 5 | 0.0 | 2.0 | 0.00 | 0.00 | 0.00 | 84 | 1012.5 |
| 20260510100458 | 57 | 17 | 0.0 | 0.0 | 0.00 | 0.00 | 0.00 | 85 | 1012.6 |
| 20260510095955 | 57 | 349 | 1.0 | 1.0 | 0.00 | 0.00 | 0.00 | 86 | 1012.5 |
| 20260510095450 | 57 | 31 | 0.0 | 1.0 | 0.00 | 0.00 | 0.00 | 86 | 1012.4 |
| 20260510094950 | 57 | 346 | 1.0 | 2.0 | 0.00 | 0.00 | 0.00 | 86 | 1012.4 |
| 20260510094445 | 57 | 352 | 1.0 | 2.0 | 0.00 | 0.00 | 0.00 | 87 | 1012.3 |
| 20260510093941 | 57 | 343 | 1.0 | 2.0 | 0.00 | 0.00 | 0.00 | 87 | 1012.4 |
| 20260510093436 | 57 | 16 | 0.0 | 1.0 | 0.00 | 0.00 | 0.00 | 86 | 1012.3 |
| 20260510092933 | 57 | 24 | 0.0 | 2.0 | 0.00 | 0.00 | 0.00 | 86 | 1012.3 |
| 20260510092431 | 57 | 17 | 1.0 | 2.0 | 0.00 | 0.00 | 0.00 | 87 | 1012.3 |
| 20260510091930 | 56 | 183 | 0.0 | 0.0 | 0.00 | 0.00 | 0.00 | 88 | 1012.2 |
| 20260510091428 | 56 | 183 | 0.0 | 0.0 | 0.00 | 0.00 | 0.00 | 87 | 1011.9 |
| 20260510090924 | 56 | 183 | 0.0 | 0.0 | 0.00 | 0.00 | 0.00 | 87 | 1011.8 |
| 20260510090421 | 56 | 183 | 0.0 | 0.0 | 0.00 | 0.00 | 0.00 | 87 | 1011.9 |
| 20260510085916 | 57 | 183 | 0.0 | 0.0 | 0.00 | 0.00 | 0.00 | 88 | 1011.8 |
| 20260510085412 | 57 | 183 | 0.0 | 0.0 | 0.00 | 0.00 | 0.00 | 86 | 1011.9 |
| 20260510084907 | 57 | 183 | 0.0 | 0.0 | 0.00 | 0.00 | 0.00 | 85 | 1011.9 |
| 20260510084405 | 57 | 183 | 0.0 | 0.0 | 0.00 | 0.00 | 0.00 | 85 | 1011.6 |
| 20260510083901 | 58 | 186 | 0.0 | 0.0 | 0.00 | 0.00 | 0.00 | 84 | 1011.7 |
| 20260510083358 | 59 | 183 | 0.0 | 0.0 | 0.00 | 0.00 | 0.00 | 81 | 1011.4 |
| 20260510082853 | 59 | 183 | 0.0 | 0.0 | 0.00 | 0.00 | 0.00 | 80 | 1011.6 |
| 20260510082351 | 59 | 183 | 0.0 | 0.0 | 0.00 | 0.00 | 0.00 | 80 | 1011.6 |
| 20260510081850 | 59 | 183 | 0.0 | 0.0 | 0.00 | 0.00 | 0.00 | 81 | 1011.3 |
| 20260510081346 | 58 | 183 | 1.0 | 1.0 | 0.00 | 0.00 | 0.00 | 82 | 1011.2 |
| 20260510080843 | 57 | 182 | 1.0 | 1.0 | 0.00 | 0.00 | 0.00 | 83 | 1011.1 |
| 20260510080336 | 57 | 179 | 1.0 | 2.0 | 0.00 | 0.00 | 0.00 | 84 | 1011.1 |
| 20260510075834 | 57 | 176 | 0.0 | 1.0 | 0.00 | 0.00 | 0.00 | 85 | 1011.0 |
| 20260510075332 | 57 | 176 | 0.0 | 0.0 | 0.00 | 0.00 | 0.00 | 84 | 1010.9 |
| 20260510074828 | 58 | 11 | 0.0 | 0.0 | 0.00 | 0.00 | 0.00 | 83 | 1010.8 |
| 20260510074325 | 59 | 165 | 0.0 | 1.0 | 0.00 | 0.00 | 0.00 | 82 | 1010.7 |
| 20260510073821 | 59 | 26 | 0.0 | 3.0 | 0.00 | 0.00 | 0.00 | 81 | 1010.9 |
| 20260510073317 | 59 | 177 | 2.0 | 3.0 | 0.00 | 0.00 | 0.00 | 80 | 1010.5 |
| 20260510072813 | 60 | 25 | 1.0 | 2.0 | 0.00 | 0.00 | 0.00 | 79 | 1010.8 |
| 20260510072310 | 60 | 167 | 0.0 | 2.0 | 0.00 | 0.00 | 0.00 | 76 | 1010.7 |
| 20260510071807 | 61 | 4 | 3.0 | 4.0 | 0.00 | 0.00 | 0.00 | 74 | 1010.7 |
| 20260510071303 | 62 | 279 | 0.0 | 1.0 | 0.00 | 0.00 | 0.00 | 72 | 1010.4 |
| 20260510070803 | 62 | 185 | 1.0 | 1.0 | 0.00 | 0.00 | 0.00 | 72 | 1010.4 |
| 20260510070259 | 62 | 190 | 0.0 | 1.0 | 0.00 | 0.00 | 0.00 | 72 | 1010.6 |
| 20260510065758 | 62 | 187 | 0.0 | 2.0 | 0.00 | 0.00 | 0.00 | 71 | 1010.6 |
| 20260510065255 | 63 | 183 | 0.0 | 1.0 | 0.00 | 0.00 | 0.00 | 71 | 1010.5 |
| 20260510064752 | 63 | 184 | 0.0 | 1.0 | 0.00 | 0.00 | 0.00 | 70 | 1010.3 |
| 20260510064250 | 63 | 175 | 1.0 | 2.0 | 0.00 | 0.00 | 0.00 | 70 | 1010.4 |
| 20260510063745 | 63 | 191 | 0.0 | 1.0 | 0.00 | 0.00 | 0.00 | 70 | 1010.5 |
| 20260510063242 | 63 | 191 | 0.0 | 0.0 | 0.00 | 0.00 | 0.00 | 70 | 1010.5 |
| 20260510062739 | 64 | 185 | 0.0 | 1.0 | 0.00 | 0.00 | 0.00 | 69 | 1010.5 |
| 20260510062235 | 64 | 186 | 0.0 | 1.0 | 0.00 | 0.00 | 0.00 | 69 | 1010.6 |
| 20260510061730 | 64 | 173 | 0.0 | 1.0 | 0.00 | 0.00 | 0.00 | 68 | 1010.4 |
| 20260510061228 | 64 | 280 | 0.0 | 1.0 | 0.00 | 0.00 | 0.00 | 68 | 1010.9 |
| 20260510060724 | 64 | 228 | 0.0 | 1.0 | 0.00 | 0.00 | 0.00 | 68 | 1010.8 |
| 20260510060220 | 64 | 185 | 1.0 | 2.0 | 0.00 | 0.00 | 0.00 | 67 | 1010.7 |
| 20260510055717 | 64 | 230 | 1.0 | 1.0 | 0.00 | 0.00 | 0.00 | 67 | 1010.9 |
| 20260510055215 | 64 | 212 | 0.0 | 2.0 | 0.00 | 0.00 | 0.00 | 67 | 1010.9 |
| 20260510054710 | 64 | 263 | 2.0 | 2.0 | 0.00 | 0.00 | 0.00 | 67 | 1010.7 |
| 20260510054206 | 64 | 203 | 0.0 | 1.0 | 0.00 | 0.00 | 0.00 | 67 | 1010.7 |
| 20260510053706 | 64 | 178 | 0.0 | 1.0 | 0.00 | 0.00 | 0.00 | 66 | 1010.8 |
| 20260510053202 | 64 | 204 | 0.0 | 1.0 | 0.00 | 0.00 | 0.00 | 66 | 1010.7 |
| 20260510052658 | 64 | 157 | 0.0 | 1.0 | 0.00 | 0.00 | 0.00 | 66 | 1010.7 |
| 20260510052154 | 64 | 142 | 1.0 | 1.0 | 0.00 | 0.00 | 0.00 | 66 | 1010.5 |
| 20260510051650 | 64 | 200 | 0.0 | 2.0 | 0.00 | 0.00 | 0.00 | 66 | 1010.7 |
| 20260510051147 | 64 | 186 | 2.0 | 2.0 | 0.00 | 0.00 | 0.00 | 66 | 1010.6 |
| 20260510050644 | 64 | 170 | 0.0 | 0.0 | 0.00 | 0.00 | 0.00 | 67 | 1010.6 |
| 20260510050141 | 63 | 159 | 0.0 | 1.0 | 0.00 | 0.00 | 0.00 | 67 | 1010.7 |
| 20260510045638 | 64 | 197 | 1.0 | 2.0 | 0.00 | 0.00 | 0.00 | 67 | 1010.6 |
| 20260510045134 | 64 | 175 | 0.0 | 1.0 | 0.00 | 0.00 | 0.00 | 66 | 1010.8 |
| 20260510044630 | 64 | 191 | 1.0 | 2.0 | 0.00 | 0.00 | 0.00 | 66 | 1010.8 |
| 20260510044128 | 63 | 193 | 0.0 | 1.0 | 0.00 | 0.00 | 0.00 | 66 | 1010.8 |
| 20260510043624 | 63 | 194 | 0.0 | 1.0 | 0.00 | 0.00 | 0.00 | 66 | 1010.8 |
| 20260510043121 | 64 | 184 | 0.0 | 1.0 | 0.00 | 0.00 | 0.00 | 66 | 1010.8 |
| 20260510042618 | 63 | 200 | 0.0 | 0.0 | 0.00 | 0.00 | 0.00 | 66 | 1010.6 |
| 20260510042114 | 63 | 255 | 0.0 | 0.0 | 0.00 | 0.00 | 0.00 | 67 | 1010.7 |
| 20260510041611 | 63 | 174 | 0.0 | 0.0 | 0.00 | 0.00 | 0.00 | 67 | 1010.7 |
| 20260510041108 | 63 | 174 | 0.0 | 0.0 | 0.00 | 0.00 | 0.00 | 66 | 1010.8 |
| 20260510040606 | 63 | 134 | 0.0 | 0.0 | 0.00 | 0.00 | 0.00 | 67 | 1010.8 |
| 20260510035558 | 63 | 268 | 0.0 | 0.0 | 0.00 | 0.23 | 0.23 | 67 | 1010.6 |
| 20260510035058 | 63 | 192 | 0.0 | 0.0 | 0.00 | 0.23 | 0.23 | 67 | 1010.5 |
| 20260510034556 | 63 | 192 | 0.0 | 0.0 | 0.00 | 0.23 | 0.23 | 66 | 1010.6 |
| 20260510034053 | 64 | 192 | 0.0 | 0.0 | 0.00 | 0.23 | 0.23 | 65 | 1010.6 |
| 20260510033549 | 64 | 192 | 0.0 | 0.0 | 0.00 | 0.23 | 0.23 | 65 | 1010.7 |
| 20260510033047 | 64 | 192 | 0.0 | 0.0 | 0.00 | 0.23 | 0.23 | 65 | 1010.6 |
| 20260510032543 | 64 | 224 | 0.0 | 0.0 | 0.00 | 0.23 | 0.23 | 65 | 1010.5 |
| 20260510032039 | 63 | 224 | 0.0 | 0.0 | 0.00 | 0.23 | 0.23 | 65 | 1010.6 |
| 20260510031539 | 63 | 224 | 0.0 | 0.0 | 0.00 | 0.23 | 0.23 | 65 | 1010.5 |
| 20260510031035 | 63 | 224 | 0.0 | 0.0 | 0.00 | 0.23 | 0.23 | 66 | 1010.5 |
| 20260510030531 | 63 | 224 | 0.0 | 0.0 | 0.00 | 0.23 | 0.23 | 66 | 1010.6 |
| 20260510030028 | 62 | 224 | 0.0 | 0.0 | 0.00 | 0.23 | 0.23 | 68 | 1010.5 |
| 20260510025525 | 63 | 224 | 0.0 | 0.0 | 0.00 | 0.23 | 0.23 | 67 | 1010.3 |
| 20260510025023 | 63 | 224 | 0.0 | 0.0 | 0.00 | 0.23 | 0.23 | 67 | 1010.3 |
| 20260510024520 | 64 | 224 | 0.0 | 0.0 | 0.00 | 0.23 | 0.23 | 66 | 1010.3 |
| 20260510024015 | 64 | 225 | 0.0 | 0.0 | 0.00 | 0.23 | 0.23 | 64 | 1010.3 |
| 20260510023511 | 65 | 225 | 0.0 | 0.0 | 0.00 | 0.23 | 0.23 | 63 | 1010.1 |
| 20260510023009 | 65 | 225 | 0.0 | 0.0 | 0.00 | 0.23 | 0.23 | 62 | 1010.3 |
| 20260510022508 | 65 | 221 | 0.0 | 0.0 | 0.00 | 0.23 | 0.23 | 61 | 1010.4 |
| 20260510022008 | 65 | 182 | 0.0 | 0.0 | 0.00 | 0.23 | 0.23 | 61 | 1010.0 |
| 20260510021505 | 65 | 199 | 0.0 | 1.0 | 0.00 | 0.23 | 0.23 | 61 | 1010.0 |
| 20260510021002 | 66 | 199 | 0.0 | 0.0 | 0.00 | 0.23 | 0.23 | 60 | 1010.0 |
| 20260510020456 | 66 | 199 | 0.0 | 0.0 | 0.00 | 0.23 | 0.23 | 59 | 1009.9 |
| 20260510015952 | 67 | 199 | 0.0 | 0.0 | 0.00 | 0.23 | 0.23 | 58 | 1009.9 |
| 20260510015448 | 67 | 199 | 0.0 | 0.0 | 0.00 | 0.23 | 0.23 | 57 | 1009.7 |
| 20260510014943 | 67 | 222 | 0.0 | 1.0 | 0.00 | 0.23 | 0.23 | 57 | 1009.7 |
| 20260510014441 | 67 | 190 | 0.0 | 1.0 | 0.00 | 0.23 | 0.23 | 57 | 1009.6 |
| 20260510013938 | 67 | 191 | 0.0 | 1.0 | 0.00 | 0.23 | 0.23 | 57 | 1009.5 |
| 20260510013432 | 67 | 187 | 0.0 | 1.0 | 0.00 | 0.23 | 0.23 | 57 | 1009.3 |
| 20260510012928 | 68 | 187 | 0.0 | 1.0 | 0.00 | 0.23 | 0.23 | 57 | 1009.2 |
| 20260510012423 | 68 | 162 | 0.0 | 1.0 | 0.00 | 0.23 | 0.23 | 56 | 1009.3 |
| 20260510011918 | 68 | 271 | 0.0 | 0.0 | 0.00 | 0.23 | 0.23 | 58 | 1009.2 |
| 20260510011413 | 68 | 208 | 0.0 | 0.0 | 0.00 | 0.23 | 0.23 | 57 | 1009.3 |
| 20260510010910 | 68 | 197 | 0.0 | 0.0 | 0.00 | 0.23 | 0.23 | 57 | 1009.2 |
| 20260510010408 | 68 | 197 | 0.0 | 0.0 | 0.00 | 0.23 | 0.23 | 56 | 1009.1 |
| 20260510005904 | 69 | 197 | 0.0 | 0.0 | 0.00 | 0.23 | 0.23 | 56 | 1009.0 |
| 20260510005400 | 69 | 194 | 0.0 | 1.0 | 0.00 | 0.23 | 0.23 | 55 | 1008.9 |
| 20260510004858 | 69 | 201 | 0.0 | 1.0 | 0.00 | 0.23 | 0.23 | 55 | 1008.9 |
| 20260510004355 | 70 | 319 | 0.0 | 0.0 | 0.00 | 0.23 | 0.23 | 53 | 1008.8 |
| 20260510003853 | 70 | 256 | 0.0 | 0.0 | 0.00 | 0.23 | 0.23 | 53 | 1008.6 |
| 20260510003349 | 70 | 223 | 0.0 | 1.0 | 0.00 | 0.23 | 0.23 | 53 | 1008.8 |
| 20260510002848 | 71 | 219 | 0.0 | 1.0 | 0.00 | 0.23 | 0.23 | 52 | 1008.7 |
| 20260510002346 | 71 | 180 | 1.0 | 1.0 | 0.00 | 0.23 | 0.23 | 51 | 1008.4 |
| 20260510001842 | 71 | 184 | 0.0 | 2.0 | 0.00 | 0.23 | 0.23 | 51 | 1008.4 |
| 20260510001340 | 72 | 284 | 0.0 | 1.0 | 0.00 | 0.23 | 0.23 | 51 | 1008.3 |
| 20260510000836 | 72 | 216 | 0.0 | 0.0 | 0.00 | 0.23 | 0.23 | 50 | 1008.4 |
| 20260510000334 | 72 | 151 | 1.0 | 2.0 | 0.00 | 0.23 | 0.23 | 50 | 1008.1 |
| 20260509235830 | 72 | 155 | 0.0 | 1.0 | 0.00 | 0.23 | 0.23 | 49 | 1008.3 |
| 20260509235327 | 73 | 155 | 2.0 | 4.0 | 0.00 | 0.23 | 0.23 | 48 | 1008.2 |
| 20260509234823 | 73 | 218 | 0.0 | 1.0 | 0.00 | 0.23 | 0.23 | 49 | 1008.2 |
| 20260509234319 | 73 | 240 | 0.0 | 0.0 | 0.00 | 0.23 | 0.23 | 48 | 1008.1 |
| 20260509233818 | 73 | 236 | 2.0 | 3.0 | 0.00 | 0.23 | 0.23 | 47 | 1007.9 |
| 20260509233315 | 73 | 204 | 2.0 | 4.0 | 0.00 | 0.23 | 0.23 | 47 | 1008.1 |
| 20260509232811 | 73 | 285 | 1.0 | 4.0 | 0.00 | 0.23 | 0.23 | 48 | 1007.9 |
| 20260509232309 | 73 | 189 | 2.0 | 4.0 | 0.00 | 0.23 | 0.23 | 47 | 1007.8 |
| 20260509231805 | 74 | 187 | 2.0 | 4.0 | 0.00 | 0.23 | 0.23 | 47 | 1008.0 |
| 20260509231302 | 74 | 208 | 0.0 | 1.0 | 0.00 | 0.23 | 0.23 | 47 | 1007.7 |
| 20260509230759 | 74 | 177 | 4.0 | 6.0 | 0.00 | 0.23 | 0.23 | 46 | 1007.8 |
| 20260509230256 | 74 | 148 | 1.0 | 2.0 | 0.00 | 0.23 | 0.23 | 46 | 1007.8 |
| 20260509225751 | 74 | 192 | 2.0 | 4.0 | 0.00 | 0.23 | 0.23 | 46 | 1007.8 |
| 20260509225248 | 74 | 211 | 1.0 | 3.0 | 0.00 | 0.23 | 0.23 | 48 | 1007.6 |
| 20260509224743 | 74 | 195 | 1.0 | 6.0 | 0.00 | 0.23 | 0.23 | 46 | 1007.8 |
| 20260509224241 | 74 | 181 | 3.0 | 6.0 | 0.00 | 0.23 | 0.23 | 46 | 1007.8 |
| 20260509223737 | 74 | 197 | 2.0 | 4.0 | 0.00 | 0.23 | 0.23 | 47 | 1007.7 |
| 20260509223235 | 74 | 202 | 2.0 | 2.0 | 0.00 | 0.23 | 0.23 | 48 | 1007.7 |
| 20260509222731 | 74 | 252 | 2.0 | 6.0 | 0.00 | 0.23 | 0.23 | 48 | 1007.7 |
| 20260509222226 | 74 | 195 | 2.0 | 6.0 | 0.00 | 0.23 | 0.23 | 48 | 1007.7 |
| 20260509221722 | 74 | 220 | 5.0 | 7.0 | 0.00 | 0.23 | 0.23 | 49 | 1007.6 |
| 20260509221219 | 75 | 178 | 1.0 | 7.0 | 0.00 | 0.23 | 0.23 | 49 | 1007.6 |
| 20260509220715 | 75 | 177 | 1.0 | 2.0 | 0.00 | 0.23 | 0.23 | 47 | 1007.9 |
| 20260509220212 | 75 | 300 | 0.0 | 2.0 | 0.00 | 0.23 | 0.23 | 48 | 1007.7 |
| 20260509215707 | 75 | 267 | 1.0 | 11.0 | 0.00 | 0.23 | 0.23 | 47 | 1007.7 |
| 20260509215204 | 75 | 163 | 2.0 | 4.0 | 0.00 | 0.23 | 0.23 | 47 | 1007.9 |
| 20260509214701 | 74 | 168 | 2.0 | 3.0 | 0.00 | 0.23 | 0.23 | 47 | 1007.7 |
| 20260509214158 | 74 | 157 | 6.0 | 8.0 | 0.00 | 0.23 | 0.23 | 48 | 1007.8 |
| 20260509213655 | 75 | 307 | 4.0 | 10.0 | 0.00 | 0.23 | 0.23 | 48 | 1007.9 |
| 20260509213150 | 74 | 191 | 6.0 | 10.0 | 0.00 | 0.23 | 0.23 | 49 | 1007.7 |
| 20260509212648 | 74 | 223 | 3.0 | 4.0 | 0.00 | 0.23 | 0.23 | 46 | 1007.9 |
| 20260509212145 | 75 | 206 | 1.0 | 8.0 | 0.00 | 0.23 | 0.23 | 46 | 1007.9 |
| 20260509211641 | 75 | 202 | 6.0 | 9.0 | 0.00 | 0.23 | 0.23 | 47 | 1007.9 |
| 20260509211138 | 76 | 254 | 2.0 | 6.0 | 0.00 | 0.23 | 0.23 | 46 | 1008.0 |
| 20260509210635 | 75 | 198 | 2.0 | 8.0 | 0.00 | 0.23 | 0.23 | 45 | 1007.8 |
| 20260509210132 | 75 | 188 | 3.0 | 7.0 | 0.00 | 0.23 | 0.23 | 47 | 1007.9 |
| 20260509205626 | 76 | 241 | 0.0 | 4.0 | 0.00 | 0.23 | 0.23 | 47 | 1007.9 |
| 20260509205121 | 75 | 203 | 0.0 | 4.0 | 0.00 | 0.23 | 0.23 | 50 | 1008.0 |
| 20260509204617 | 75 | 259 | 2.0 | 3.0 | 0.00 | 0.23 | 0.23 | 47 | 1008.1 |
| 20260509204114 | 75 | 197 | 2.0 | 8.0 | 0.00 | 0.23 | 0.23 | 49 | 1008.1 |
| 20260509203610 | 74 | 167 | 4.0 | 6.0 | 0.00 | 0.23 | 0.23 | 50 | 1008.0 |
| 20260509203109 | 74 | 159 | 4.0 | 6.0 | 0.00 | 0.23 | 0.23 | 51 | 1008.1 |
| 20260509202609 | 74 | 250 | 4.0 | 6.0 | 0.00 | 0.23 | 0.23 | 48 | 1008.1 |
| 20260509202104 | 75 | 203 | 5.0 | 7.0 | 0.00 | 0.23 | 0.23 | 50 | 1008.3 |
| 20260509201604 | 75 | 187 | 2.0 | 4.0 | 0.00 | 0.23 | 0.23 | 51 | 1008.2 |
| 20260509201103 | 75 | 207 | 3.0 | 4.0 | 0.00 | 0.23 | 0.23 | 50 | 1008.4 |
| 20260509200603 | 74 | 218 | 1.0 | 4.0 | 0.00 | 0.23 | 0.23 | 50 | 1008.5 |
| 20260509200059 | 73 | 201 | 4.0 | 8.0 | 0.00 | 0.23 | 0.23 | 52 | 1008.3 |
| 20260509195554 | 74 | 191 | 2.0 | 3.0 | 0.00 | 0.23 | 0.23 | 50 | 1008.4 |
| 20260509195050 | 74 | 211 | 1.0 | 4.0 | 0.00 | 0.23 | 0.23 | 51 | 1008.4 |
| 20260509194549 | 72 | 171 | 4.0 | 8.0 | 0.00 | 0.23 | 0.23 | 52 | 1008.5 |
| 20260509194047 | 72 | 202 | 4.0 | 8.0 | 0.00 | 0.23 | 0.23 | 57 | 1008.6 |
| 20260509193542 | 72 | 204 | 3.0 | 8.0 | 0.00 | 0.23 | 0.23 | 54 | 1008.9 |
| 20260509193039 | 72 | 297 | 3.0 | 3.0 | 0.00 | 0.23 | 0.23 | 53 | 1008.8 |
| 20260509192536 | 73 | 190 | 4.0 | 9.0 | 0.00 | 0.23 | 0.23 | 55 | 1008.7 |
| 20260509192031 | 71 | 184 | 2.0 | 8.0 | 0.00 | 0.23 | 0.23 | 56 | 1008.6 |
| 20260509191525 | 71 | 208 | 2.0 | 10.0 | 0.00 | 0.23 | 0.23 | 58 | 1008.9 |
| 20260509191021 | 72 | 138 | 6.0 | 7.0 | 0.00 | 0.23 | 0.23 | 58 | 1008.9 |
| 20260509190518 | 72 | 177 | 4.0 | 4.0 | 0.00 | 0.23 | 0.23 | 56 | 1009.0 |
| 20260509190017 | 72 | 183 | 4.0 | 7.0 | 0.00 | 0.23 | 0.23 | 58 | 1009.0 |
| 20260509185513 | 72 | 261 | 4.0 | 7.0 | 0.00 | 0.23 | 0.23 | 56 | 1009.0 |
| 20260509185009 | 72 | 285 | 2.0 | 3.0 | 0.00 | 0.23 | 0.23 | 57 | 1009.0 |
| 20260509184509 | 72 | 215 | 2.0 | 4.0 | 0.00 | 0.23 | 0.23 | 57 | 1009.0 |
| 20260509184004 | 71 | 178 | 0.0 | 6.0 | 0.00 | 0.23 | 0.23 | 61 | 1009.0 |
| 20260509183459 | 72 | 301 | 2.0 | 2.0 | 0.00 | 0.23 | 0.23 | 60 | 1009.0 |
| 20260509182955 | 71 | 294 | 1.0 | 3.0 | 0.00 | 0.23 | 0.23 | 60 | 1009.0 |
| 20260509182451 | 71 | 218 | 1.0 | 2.0 | 0.00 | 0.23 | 0.23 | 61 | 1009.0 |
| 20260509181949 | 71 | 182 | 0.0 | 3.0 | 0.00 | 0.23 | 0.23 | 62 | 1009.1 |
| 20260509181447 | 71 | 169 | 3.0 | 4.0 | 0.00 | 0.23 | 0.23 | 62 | 1009.0 |
| 20260509180944 | 71 | 285 | 1.0 | 3.0 | 0.00 | 0.23 | 0.23 | 62 | 1009.0 |
| 20260509180439 | 69 | 152 | 1.0 | 2.0 | 0.00 | 0.23 | 0.23 | 64 | 1009.1 |
| 20260509175937 | 68 | 203 | 1.0 | 3.0 | 0.00 | 0.23 | 0.23 | 65 | 1009.2 |
| 20260509175433 | 69 | 189 | 1.0 | 4.0 | 0.00 | 0.23 | 0.23 | 65 | 1009.1 |
| 20260509174929 | 69 | 192 | 1.0 | 3.0 | 0.00 | 0.23 | 0.23 | 64 | 1009.0 |
| 20260509174426 | 69 | 212 | 1.0 | 2.0 | 0.00 | 0.23 | 0.23 | 63 | 1009.2 |
| 20260509173922 | 70 | 191 | 4.0 | 8.0 | 0.00 | 0.23 | 0.23 | 64 | 1009.3 |
| 20260509173421 | 69 | 194 | 2.0 | 9.0 | 0.00 | 0.23 | 0.23 | 69 | 1009.1 |
| 20260509172918 | 67 | 185 | 2.0 | 4.0 | 0.00 | 0.23 | 0.23 | 68 | 1009.3 |
| 20260509172415 | 68 | 218 | 2.0 | 3.0 | 0.00 | 0.23 | 0.23 | 65 | 1009.3 |
| 20260509171911 | 68 | 192 | 1.0 | 11.0 | 0.00 | 0.23 | 0.23 | 68 | 1009.2 |
| 20260509171407 | 68 | 293 | 1.0 | 4.0 | 0.00 | 0.23 | 0.23 | 65 | 1009.2 |
| 20260509170903 | 67 | 211 | 0.0 | 4.0 | 0.00 | 0.23 | 0.23 | 65 | 1009.2 |
| 20260509170358 | 67 | 274 | 2.0 | 4.0 | 0.00 | 0.23 | 0.23 | 68 | 1009.2 |
| 20260509165854 | 66 | 277 | 1.0 | 4.0 | 0.00 | 0.23 | 0.23 | 69 | 1009.3 |
| 20260509165349 | 66 | 199 | 2.0 | 4.0 | 0.00 | 0.23 | 0.23 | 70 | 1009.5 |
| 20260509164845 | 67 | 186 | 1.0 | 4.0 | 0.00 | 0.23 | 0.23 | 67 | 1009.6 |
| 20260509164341 | 67 | 206 | 2.0 | 3.0 | 0.00 | 0.23 | 0.23 | 65 | 1009.5 |
| 20260509163837 | 66 | 281 | 1.0 | 2.0 | 0.00 | 0.23 | 0.23 | 72 | 1009.6 |
| 20260509163334 | 66 | 144 | 4.0 | 6.0 | 0.00 | 0.23 | 0.23 | 69 | 1009.8 |
| 20260509162834 | 66 | 151 | 3.0 | 4.0 | 0.00 | 0.23 | 0.23 | 69 | 1009.6 |
| 20260509162332 | 66 | 255 | 1.0 | 2.0 | 0.00 | 0.23 | 0.23 | 70 | 1009.5 |
| 20260509161828 | 66 | 190 | 1.0 | 3.0 | 0.00 | 0.23 | 0.23 | 72 | 1009.9 |
| 20260509161325 | 65 | 208 | 1.0 | 3.0 | 0.00 | 0.23 | 0.23 | 70 | 1009.4 |
| 20260509160820 | 66 | 287 | 1.0 | 2.0 | 0.00 | 0.23 | 0.23 | 73 | 1009.4 |
| 20260509160316 | 65 | 218 | 1.0 | 2.0 | 0.00 | 0.23 | 0.23 | 73 | 1009.3 |
| 20260509155812 | 65 | 242 | 0.0 | 2.0 | 0.00 | 0.23 | 0.23 | 73 | 1009.2 |
| 20260509155309 | 65 | 117 | 1.0 | 2.0 | 0.00 | 0.23 | 0.23 | 72 | 1009.1 |
| 20260509154805 | 65 | 173 | 6.0 | 8.0 | 0.00 | 0.23 | 0.23 | 72 | 1009.0 |
| 20260509154302 | 65 | 207 | 2.0 | 4.0 | 0.00 | 0.23 | 0.23 | 73 | 1009.2 |
| 20260509153759 | 65 | 200 | 2.0 | 4.0 | 0.00 | 0.23 | 0.23 | 73 | 1009.2 |
| 20260509153254 | 65 | 183 | 1.0 | 7.0 | 0.00 | 0.23 | 0.23 | 77 | 1009.0 |
| 20260509152751 | 65 | 273 | 1.0 | 4.0 | 0.00 | 0.23 | 0.23 | 75 | 1009.1 |
| 20260509152248 | 64 | 188 | 1.0 | 7.0 | 0.00 | 0.23 | 0.23 | 74 | 1009.1 |
| 20260509151745 | 63 | 213 | 1.0 | 3.0 | 0.00 | 0.23 | 0.23 | 81 | 1009.0 |
| 20260509151241 | 64 | 198 | 2.0 | 2.0 | 0.00 | 0.23 | 0.23 | 79 | 1009.1 |
| 20260509150740 | 63 | 243 | 4.0 | 4.0 | 0.00 | 0.23 | 0.23 | 79 | 1009.0 |
| 20260509150238 | 63 | 205 | 3.0 | 4.0 | 0.00 | 0.23 | 0.23 | 78 | 1009.2 |
| 20260509145735 | 62 | 179 | 3.0 | 3.0 | 0.00 | 0.23 | 0.23 | 82 | 1008.9 |